Theta_e
318 319 319 317 314 310 307 307 307 307 310 312 314 315 316 316 316 318 321 322 322 322 322 322 321 321 322 322 324 325 325 326 326 325 326 325 324 324 324 323 324 323 322 322 321 321 321 321 321 322 323 322 321 320 318 318 318 317 316 315 315 315 314
319 320 319 317 313 309 307 307 307 307 309 311 313 314 316 317 316 317 318 319 321 321 321 320 320 319 319 320 322 322 323 323 323 323 324 324 324 324 324 324 324 324 323 323 322 321 321 320 321 322 321 319 317 316 314 313 314 314 313 313 313 313 312
319 319 318 316 311 307 307 307 306 307 308 310 312 312 315 317 316 316 316 317 319 321 320 319 319 318 316 318 320 319 321 321 321 322 323 323 323 323 323 323 323 323 322 321 321 321 321 320 320 320 318 316 314 313 312 312 313 313 313 313 314 313 313
318 318 318 314 309 307 307 307 306 307 307 308 310 310 312 315 316 316 315 314 316 319 319 319 318 316 313 315 318 318 320 321 320 321 320 320 321 321 321 322 322 321 321 320 320 321 319 319 318 317 315 312 311 311 312 313 313 314 314 314 315 315 315
317 318 317 312 308 307 308 307 306 306 306 306 307 307 309 312 313 312 309 309 312 315 316 314 313 311 310 313 315 315 318 320 319 318 317 317 318 318 319 319 318 317 316 315 315 314 312 310 310 309 308 308 309 311 313 313 314 314 314 314 314 314 315
319 318 315 310 307 308 307 307 306 305 305 305 305 306 308 310 310 307 305 305 308 309 309 307 306 305 306 307 308 310 315 317 315 312 309 310 310 309 310 311 310 308 307 307 307 306 305 305 304 305 304 305 309 312 313 314 314 313 314 313 312 311 312
321 319 314 308 307 308 307 306 305 305 305 305 305 306 307 308 307 305 304 305 305 305 305 305 305 305 304 304 305 307 309 309 308 306 304 305 305 305 305 305 305 304 304 304 304 303 303 303 303 303 303 303 306 310 312 313 313 311 311 311 311 310 310
321 319 314 308 308 307 306 306 305 305 305 305 305 306 306 306 305 305 305 305 306 306 306 306 306 306 305 305 305 305 306 305 305 305 305 305 305 304 304 304 304 303 303 303 303 303 303 303 303 302 302 302 304 307 310 311 312 311 309 308 308 309 309
321 318 313 308 308 307 306 306 305 305 305 305 305 305 305 305 305 305 305 305 306 306 306 306 306 306 306 305 305 305 305 305 304 304 304 304 304 303 304 303 303 303 304 304 305 305 305 305 305 304 303 302 302 304 306 308 309 309 307 306 306 306 306
319 317 314 309 307 307 307 306 306 305 305 305 305 305 305 305 305 305 306 305 306 306 306 306 305 305 305 304 304 304 304 304 304 304 304 304 304 304 304 304 305 306 307 308 308 308 308 308 308 307 306 305 304 303 304 305 305 306 305 305 304 304 304
315 316 315 311 307 308 308 306 306 306 306 306 305 305 305 305 305 305 305 305 306 306 306 306 305 305 304 305 305 305 305 305 305 306 306 306 306 306 306 306 307 309 310 311 310 310 310 309 309 308 308 308 307 306 306 305 305 305 305 305 305 305 305
312 314 318 314 309 309 308 307 306 306 306 306 306 306 305 305 305 305 305 306 306 306 306 305 305 305 305 306 307 307 308 308 307 308 308 308 308 307 307 308 309 310 311 311 311 311 310 310 310 310 309 309 308 308 307 306 306 305 305 305 305 305 305
312 315 319 314 311 312 309 308 307 306 307 306 306 306 306 305 306 305 305 306 306 306 306 305 305 305 305 306 307 308 308 308 308 308 308 309 309 308 308 309 309 309 310 310 311 311 311 310 311 311 310 310 310 309 308 307 307 306 305 305 305 305 305
314 317 318 312 312 315 310 309 309 307 307 307 306 306 306 306 306 306 306 306 306 306 306 305 305 305 306 306 306 307 307 308 308 308 308 308 308 308 308 308 308 308 308 309 309 310 310 310 310 310 310 310 310 310 310 309 309 307 307 306 306 305 305
316 319 318 313 313 315 313 312 310 308 307 307 307 307 306 307 307 306 306 306 306 306 306 306 306 306 306 306 306 307 307 307 308 308 308 308 307 308 308 308 308 308 307 307 308 308 309 309 309 309 310 310 310 310 310 310 310 309 308 308 307 306 305
318 319 319 315 313 313 315 315 312 310 310 310 310 309 307 307 307 307 307 307 306 307 306 306 306 306 307 306 307 307 307 307 308 308 308 308 308 308 308 308 308 308 308 308 307 308 308 308 308 308 309 309 309 309 310 310 310 310 309 309 308 307 306
319 319 319 318 315 313 315 317 314 313 313 313 314 315 313 311 309 308 308 308 308 308 307 307 307 307 307 308 308 308 309 309 309 309 309 309 309 309 309 309 310 309 309 309 308 308 308 308 309 310 310 310 309 309 309 310 310 310 310 309 309 308 307
319 318 318 318 317 314 315 317 317 315 314 315 316 317 317 316 315 313 312 311 310 309 309 309 310 310 310 310 310 311 313 314 314 314 313 312 312 312 312 312 313 313 313 313 312 310 309 309 311 313 313 312 310 310 310 310 310 309 309 309 309 308 308
318 317 317 318 317 316 316 316 317 317 316 316 316 316 317 318 317 317 316 315 314 313 313 313 314 314 314 314 314 313 314 316 317 317 317 316 316 315 315 315 315 316 317 316 316 315 313 311 311 313 314 313 312 311 310 309 310 310 310 310 309 309 308
317 316 317 317 317 317 317 316 317 319 318 317 316 317 317 318 318 318 317 316 316 316 316 317 317 317 316 316 316 315 313 315 317 318 318 318 318 317 317 317 317 318 317 317 317 316 316 314 313 314 314 314 314 313 312 310 310 310 310 310 309 309 309
317 316 316 317 317 317 316 316 317 318 319 319 317 317 318 317 317 316 316 317 316 316 316 317 317 317 316 316 316 316 315 315 317 318 318 318 318 318 317 317 317 318 318 317 316 316 316 315 314 314 314 314 314 314 313 311 310 310 310 309 309 309 309
319 317 316 316 316 316 317 317 316 316 317 317 317 317 317 317 317 316 316 316 316 316 316 316 317 317 316 316 315 315 315 316 317 318 317 316 316 317 316 316 317 317 317 317 316 315 315 314 313 313 313 313 313 313 312 311 310 310 310 309 309 309 308
320 318 317 317 317 317 317 317 317 316 316 316 315 315 316 316 316 315 316 316 316 316 316 315 316 317 317 317 317 317 317 317 318 318 317 316 315 316 316 317 317 316 316 317 316 315 314 313 313 312 312 312 311 311 311 310 309 309 309 308 308 308 307
321 320 320 320 319 319 319 318 318 317 317 317 316 315 315 315 315 314 315 316 317 316 316 315 316 317 317 317 317 317 317 318 317 317 317 317 316 316 316 318 318 318 317 317 316 315 315 313 312 312 311 310 310 310 310 309 308 308 308 307 306 306 305
321 321 321 321 320 320 319 318 318 317 317 317 317 316 315 315 314 314 315 317 316 315 315 316 316 317 317 317 318 318 318 318 318 318 319 319 318 318 318 318 319 319 319 318 317 316 316 313 311 311 311 310 310 310 310 309 308 308 307 306 305 304 304
319 319 319 320 320 319 319 318 318 317 318 318 317 317 316 315 315 315 316 316 316 315 316 317 317 317 317 317 316 316 315 315 315 314 315 315 316 317 318 319 320 319 318 318 318 316 315 313 311 310 310 310 310 309 308 308 308 307 305 304 304 303 303
316 317 318 319 320 319 319 318 318 318 318 318 317 316 317 317 316 316 316 316 316 316 317 317 317 315 315 313 312 310 309 308 307 307 307 308 308 310 312 315 317 318 318 318 317 316 314 312 310 310 310 310 309 308 308 308 306 305 304 304 304 303 302
313 316 318 319 319 319 318 317 318 318 319 319 318 317 316 317 317 317 317 317 316 317 317 317 315 315 314 312 310 308 307 306 306 306 306 306 306 307 308 311 314 317 317 317 316 314 311 310 310 310 309 309 308 308 307 305 304 304 305 304 303 302 302
310 313 316 317 316 316 316 316 316 317 317 318 318 317 317 317 317 317 317 317 317 317 317 317 315 315 314 312 310 308 307 306 305 305 306 306 306 307 309 311 314 315 315 315 313 311 310 310 310 309 308 308 308 306 304 304 304 305 304 303 303 302 302
309 310 311 313 313 313 314 314 314 315 315 316 316 316 316 316 317 317 316 317 317 316 316 315 314 313 313 312 310 309 307 305 305 304 305 306 306 307 308 309 311 312 312 312 311 310 309 309 309 308 308 307 306 304 304 304 305 304 304 303 302 302 301
309 309 309 310 311 312 312 312 312 312 312 313 313 314 314 315 315 315 314 314 314 313 313 313 312 312 311 311 310 308 307 306 305 305 305 306 306 306 306 307 309 310 311 310 310 309 309 309 308 307 307 305 304 304 304 304 304 304 303 302 301 300 299
309 309 309 309 310 309 308 307 308 308 309 310 311 312 312 312 311 310 310 309 309 310 310 310 310 310 310 310 308 307 307 307 307 307 306 306 306 307 307 308 308 309 310 309 308 308 308 308 307 305 305 304 304 304 304 304 303 302 301 300 299 298 297
308 309 309 309 308 306 304 304 305 305 305 306 306 306 306 305 305 305 304 304 304 305 305 306 307 308 309 309 308 308 308 308 308 307 307 307 308 308 307 308 308 308 308 308 308 307 306 305 305 304 304 304 304 304 303 302 301 300 299 298 297 296 296
308 308 309 309 309 307 305 305 305 304 303 303 303 303 303 303 303 303 303 303 302 302 302 302 304 306 308 309 309 309 310 309 309 308 308 308 308 308 308 307 307 307 307 307 307 306 305 305 304 304 304 303 303 303 302 301 300 298 297 297 296 296 296
307 308 308 309 309 309 308 307 307 306 304 303 303 303 304 303 304 303 303 303 303 302 302 302 302 303 306 309 311 311 311 310 310 309 309 309 309 308 308 307 307 306 306 306 306 305 304 303 303 303 303 303 302 301 300 299 297 296 296 296 295 295 294
306 307 308 308 309 309 309 307 307 306 306 304 304 304 304 304 304 305 305 304 304 303 302 302 301 302 305 309 311 311 311 310 310 309 309 309 308 308 307 307 306 306 305 305 304 304 303 303 302 302 302 301 299 298 297 296 296 295 295 295 294 294 293
306 306 306 307 308 309 309 307 306 306 306 305 304 304 305 305 306 306 305 304 304 303 303 302 303 304 305 309 311 310 310 309 309 309 308 308 307 307 306 305 305 304 304 303 303 303 302 301 300 299 298 297 296 296 295 295 295 294 294 293 293 294 294
Wind_Speed
4 5 4 5 6 6 7 7 7 6 4 3 2 2 3 3 2 1 1 1 1 1 1 1 2 3 4 4 2 1 1 2 3 2 3 3 3 4 5 4 2 4 6 5 6 6 6 6 5 4 3 2 1 1 2 4 5 6 6 7 8 8 9
6 7 6 5 5 5 6 7 7 6 5 3 3 4 3 1 1 1 1 1 2 2 2 4 4 5 6 6 5 5 4 3 3 3 3 4 3 2 4 3 2 4 5 3 3 3 3 5 7 7 6 4 2 1 2 4 5 6 6 7 7 7 8
8 8 7 6 5 4 5 7 7 7 6 5 5 5 3 1 1 1 2 1 3 3 4 4 4 4 4 6 7 7 7 7 7 7 7 7 6 6 5 4 3 3 2 3 3 4 4 5 7 8 7 4 2 2 3 4 5 5 5 5 5 4 4
8 9 8 8 6 5 6 7 7 7 6 5 5 5 3 1 1 2 3 2 3 4 4 3 1 2 3 5 7 8 10 10 10 10 10 10 9 8 8 7 6 6 6 6 6 6 5 5 5 6 5 3 2 4 6 6 6 6 5 5 5 5 5
8 8 8 7 5 6 7 7 7 6 5 4 4 4 2 1 2 3 3 3 4 4 3 2 1 2 4 6 6 8 10 11 11 10 9 10 9 8 9 8 7 6 6 6 5 5 4 3 3 2 3 4 5 7 8 7 6 6 5 6 7 7 6
9 7 6 5 4 6 7 7 7 5 4 3 2 2 1 1 3 3 4 6 7 7 6 5 6 6 7 7 7 9 10 9 8 8 7 8 8 8 8 7 6 6 5 5 4 4 3 3 3 3 4 5 7 8 8 7 4 3 4 5 7 7 6
11 9 6 2 3 5 6 6 5 4 3 2 1 1 3 4 4 6 8 10 11 11 11 11 11 11 11 10 10 10 10 9 8 8 8 8 8 8 7 7 6 6 6 6 6 5 5 5 4 4 4 5 7 8 8 6 3 1 3 4 6 7 7
13 12 8 3 2 4 5 5 4 3 2 1 2 4 6 6 6 7 8 10 11 12 12 11 11 11 11 11 11 10 10 9 9 9 9 9 8 8 8 8 8 8 8 8 8 8 8 8 6 6 5 5 6 7 7 5 3 0 3 5 6 7 8
13 13 9 5 3 1 3 5 3 2 1 1 3 5 7 6 6 6 6 7 9 9 9 10 9 10 10 10 10 10 10 10 10 10 10 10 10 10 10 10 10 10 10 11 11 11 11 11 11 10 8 7 6 7 7 5 3 1 2 3 5 6 7
13 13 10 6 4 4 2 5 3 2 2 1 3 5 6 6 6 5 4 5 6 7 8 8 9 10 11 11 11 11 12 12 12 12 13 12 12 12 11 11 11 11 12 12 13 13 12 12 13 12 11 10 9 8 8 7 4 2 2 3 4 5 6
16 13 11 9 7 8 4 6 5 4 3 2 3 4 5 5 5 5 5 4 5 6 7 8 9 11 12 13 14 14 14 14 14 14 14 13 13 13 11 11 11 11 12 12 12 13 12 12 12 12 11 11 10 9 9 8 5 4 5 5 6 6 7
18 14 13 12 10 9 7 7 7 6 5 4 3 3 4 4 4 4 5 5 5 5 6 8 9 11 12 13 14 14 14 14 13 12 13 12 12 11 10 10 9 9 10 10 11 11 11 11 11 11 11 10 10 9 8 7 7 6 7 8 9 10 10
20 16 15 15 13 11 11 11 9 9 7 5 5 4 4 3 3 4 4 4 4 4 5 6 7 8 10 11 11 11 11 11 11 10 10 9 9 8 7 7 6 6 7 7 7 8 8 8 9 9 9 10 10 9 9 8 8 9 9 11 12 12 12
20 18 17 17 14 13 16 13 10 10 10 8 6 5 4 4 4 3 3 3 4 4 4 4 4 5 6 7 8 8 7 7 7 7 7 7 6 5 5 4 4 4 3 3 4 5 5 6 7 8 8 9 10 11 11 11 11 11 12 13 13 14 14
20 18 20 20 16 16 16 13 11 11 11 10 8 7 6 6 6 6 5 4 4 4 4 4 3 3 3 3 3 3 3 3 2 3 3 3 3 3 2 2 1 1 1 1 1 2 3 4 5 7 7 9 10 11 12 13 13 14 14 14 15 15 16
22 20 22 23 19 17 17 14 13 13 12 11 9 9 8 8 8 7 7 6 5 5 5 5 5 4 3 2 1 1 1 1 2 2 2 2 2 2 2 2 3 3 2 2 3 3 3 4 5 6 7 8 9 10 11 12 13 14 15 16 16 17 17
25 23 25 26 23 19 17 16 15 15 15 14 13 11 10 9 8 8 8 7 7 6 6 7 6 5 4 4 4 3 3 3 3 2 2 3 3 3 4 4 4 4 4 4 4 4 3 4 4 6 8 8 9 9 10 11 12 13 14 15 16 17 18
26 24 27 29 26 21 17 17 18 18 18 18 17 16 14 13 11 10 9 8 9 9 9 9 8 7 6 5 5 5 4 3 3 3 2 3 3 3 3 4 5 5 6 6 6 6 5 5 5 7 9 9 8 9 9 10 11 12 14 15 16 17 18
23 24 27 28 27 24 20 19 20 21 22 22 21 19 17 17 16 14 12 11 12 12 12 11 10 8 8 7 7 8 7 5 4 4 4 4 5 4 4 4 5 5 6 6 7 8 8 8 7 8 9 9 9 10 11 11 12 12 13 15 17 18 19
21 26 27 27 26 25 22 21 21 23 23 24 24 22 20 19 18 17 15 14 14 15 14 12 12 11 11 10 10 10 11 10 8 7 8 8 8 8 7 6 6 6 7 7 7 8 9 10 10 10 10 10 12 13 14 13 13 13 14 15 17 18 20
21 25 26 25 24 23 22 22 23 23 24 25 25 24 22 20 19 18 16 16 16 17 16 14 15 14 14 14 14 13 14 14 13 11 10 11 12 12 12 10 8 9 9 10 10 10 10 11 11 12 12 12 13 15 15 14 13 14 15 17 18 19 20
21 23 25 25 23 22 22 23 24 25 26 27 28 28 25 20 20 20 20 20 20 21 18 16 16 17 16 18 19 17 16 17 17 15 14 13 13 13 13 13 12 12 12 12 13 13 13 13 13 13 13 13 14 15 15 14 14 14 16 18 19 20 20
18 20 23 24 24 23 23 24 24 25 27 28 31 34 31 24 22 24 24 23 23 23 21 19 19 20 20 20 19 17 17 17 17 18 18 18 16 15 14 14 14 14 14 15 17 16 15 16 16 15 14 14 15 15 16 15 15 15 16 18 19 20 20
14 16 17 17 18 19 20 19 19 20 23 25 29 35 37 33 30 28 26 25 24 23 22 20 19 19 19 18 18 18 18 18 18 18 18 17 16 15 15 15 16 16 16 17 17 16 16 17 17 16 16 16 16 17 17 16 16 16 17 19 20 20 21
12 13 14 14 13 14 14 14 14 15 17 18 21 28 33 35 34 31 27 25 24 22 20 19 19 18 17 17 17 17 16 17 17 16 15 15 14 15 15 15 16 16 17 17 16 16 16 18 18 18 18 18 18 18 18 17 17 17 19 20 21 22 22
11 12 12 12 11 11 12 12 12 13 13 13 15 19 23 27 29 29 27 25 23 21 19 18 16 15 13 12 13 13 13 14 15 14 15 15 15 16 16 16 15 15 16 16 15 15 17 18 19 18 18 19 19 19 19 19 18 19 20 21 22 23 23
9 9 10 11 12 12 12 13 13 14 14 14 14 14 16 19 22 23 22 21 19 17 15 12 10 9 9 9 9 10 11 11 12 12 12 13 14 15 16 16 16 15 14 14 13 13 15 18 18 18 18 19 19 19 19 19 19 19 22 23 24 24 24
6 6 8 10 11 11 11 10 10 11 12 13 13 13 14 15 16 16 15 14 13 12 11 10 8 7 8 8 8 8 9 9 9 9 9 10 11 12 13 14 15 14 13 12 10 11 14 17 18 18 18 19 19 19 19 18 19 21 24 25 25 24 25
6 5 6 8 9 9 9 8 7 7 8 9 10 11 11 11 11 11 11 11 10 10 9 9 8 8 8 8 8 8 8 8 8 8 8 8 8 9 9 10 10 10 9 7 7 10 14 17 17 18 18 19 19 18 18 19 21 25 26 26 25 25 26
8 7 6 7 8 8 8 7 7 7 8 9 10 10 10 10 10 11 10 10 11 10 9 9 9 8 8 8 8 8 8 7 8 7 8 8 8 8 7 7 6 5 4 4 6 10 14 16 17 18 18 18 17 17 18 22 25 26 26 26 26 26 26
9 8 7 7 8 8 7 7 7 7 8 8 9 10 10 10 10 10 10 9 9 9 8 7 7 7 7 7 8 8 8 7 7 7 7 8 8 8 7 6 5 4 3 5 8 11 14 16 17 17 17 16 16 18 22 24 26 26 26 26 26 26 27
10 9 9 8 8 7 7 7 8 8 9 9 10 10 10 10 9 7 6 6 5 5 5 5 6 6 6 7 7 8 8 7 7 6 7 7 7 7 7 6 5 5 6 8 10 12 14 15 16 16 16 16 18 21 24 25 25 25 24 25 26 27 28
11 11 10 10 9 7 7 7 7 7 8 9 9 9 8 8 7 5 4 3 3 4 6 7 7 7 7 8 9 9 9 9 8 7 7 7 7 7 7 7 7 8 9 10 11 12 13 14 15 16 16 18 20 22 23 23 23 24 25 26 27 28 29
14 14 13 12 11 10 8 8 8 7 8 8 8 7 7 6 5 4 3 2 3 5 7 9 9 9 9 9 9 9 9 9 8 8 7 7 7 8 8 9 10 11 11 11 12 12 12 14 15 17 18 19 20 21 22 24 25 26 27 28 29 30 31
16 17 16 17 16 15 13 12 11 9 9 9 8 7 6 6 5 4 4 5 6 7 8 9 10 10 9 9 9 9 8 7 7 7 7 7 8 9 10 11 11 12 12 12 12 12 13 15 16 17 18 19 21 22 24 25 26 27 28 29 31 32 32
16 17 18 19 19 18 18 18 18 16 14 12 12 11 9 8 7 7 7 8 9 10 11 11 11 11 10 9 8 7 7 7 7 7 8 9 10 10 11 12 11 11 11 11 12 13 14 16 17 18 20 21 22 23 24 25 26 27 28 30 30 31 30
18 16 16 18 22 25 24 22 22 23 20 16 14 13 11 11 10 9 9 10 10 11 11 12 11 11 10 9 8 8 8 9 9 9 10 10 11 10 11 10 10 10 10 11 12 14 15 16 18 19 20 21 21 22 23 25 26 27 28 28 29 29 29
Wind_Direction
292 288 298 321 328 326 324 325 322 322 333 355 17 352 343 350 16 87 154 206 147 132 121 88 76 80 81 92 114 161 223 228 230 249 260 217 187 203 216 217 184 167 174 172 163 155 155 155 149 142 124 95 51 336 316 311 309 307 308 309 306 307 309
273 278 287 305 317 318 314 312 312 313 318 327 339 343 349 8 40 100 136 161 152 138 116 101 92 86 83 90 104 108 104 109 111 105 123 149 146 153 182 188 164 172 183 185 173 158 158 158 149 141 131 122 115 66 358 338 338 335 333 331 325 315 307
275 283 292 301 308 309 302 301 301 304 310 320 330 336 344 34 51 37 34 85 131 128 118 113 97 83 90 107 116 115 112 109 107 109 117 124 122 123 133 133 126 140 139 120 114 111 120 135 140 140 138 144 143 89 52 29 31 27 21 16 8 357 335
279 288 302 309 310 303 295 294 296 300 309 320 326 328 327 311 329 347 358 47 131 140 129 125 98 64 105 131 130 119 117 116 115 116 118 117 113 112 115 114 112 111 105 104 106 107 111 118 129 137 138 145 152 126 107 88 78 74 66 57 48 41 29
273 289 307 313 306 301 304 305 303 307 314 321 322 320 324 339 8 8 16 72 126 141 136 129 128 110 121 137 143 134 127 124 122 120 117 116 113 111 114 112 108 106 103 106 108 107 108 107 112 117 119 135 152 144 127 115 104 91 79 64 53 46 34
268 283 300 306 296 300 312 314 314 322 331 340 339 325 352 70 67 53 70 104 116 117 113 108 108 109 112 120 135 144 140 131 126 123 117 115 112 110 111 106 102 98 94 97 96 93 88 80 88 94 107 136 155 154 143 136 122 88 65 51 42 34 25
272 281 284 274 290 307 318 319 319 332 347 6 78 143 133 115 98 91 98 106 109 106 104 103 101 100 100 102 111 125 132 127 121 117 111 110 107 105 104 101 98 92 88 87 82 80 77 69 73 81 93 127 149 155 156 154 145 76 27 20 15 10 5
274 280 271 248 276 314 323 321 324 331 338 35 148 149 140 130 114 109 109 107 107 107 106 104 102 101 100 102 106 112 118 116 112 110 107 107 105 102 98 96 93 88 84 82 77 73 71 68 65 69 84 115 133 145 157 167 176 158 12 3 347 340 341
269 270 256 242 239 264 320 310 309 301 279 183 168 156 145 139 128 121 119 116 115 113 111 109 107 107 107 107 109 112 114 112 109 106 103 101 99 97 94 90 87 85 82 77 75 72 70 69 67 69 78 93 109 128 140 152 169 178 352 345 336 332 331
253 259 242 232 204 174 260 283 263 248 230 195 184 172 160 155 148 142 140 133 128 124 119 117 115 113 112 111 111 111 110 108 106 103 99 97 97 94 92 90 87 86 83 77 74 70 67 65 65 67 74 80 89 107 119 119 115 78 6 340 336 336 337
236 244 229 226 203 183 229 263 248 242 224 215 211 191 184 179 168 162 160 153 144 136 130 126 122 118 115 113 113 112 109 106 104 102 100 98 97 95 93 93 91 87 81 75 70 66 62 57 56 57 60 66 72 82 94 95 81 46 14 359 348 342 343
229 225 220 225 208 194 229 250 245 244 230 225 232 220 213 205 195 184 171 162 156 149 143 136 130 125 122 120 118 116 113 110 108 105 102 101 100 98 97 98 96 89 81 74 67 63 58 51 47 44 43 46 49 54 62 61 48 29 8 358 352 347 344
221 213 216 220 209 212 231 234 237 243 234 228 232 235 238 231 223 210 187 175 170 166 161 153 146 139 135 132 129 124 119 116 114 111 108 106 105 104 106 106 100 92 84 74 66 60 54 46 39 33 28 25 23 24 27 27 23 15 2 355 351 348 345
211 206 211 212 213 228 233 229 231 236 234 233 231 234 242 249 251 242 219 200 192 192 193 184 173 161 151 144 137 130 123 119 118 117 115 113 111 112 114 113 109 104 91 77 65 55 46 37 27 21 15 9 6 4 5 7 7 3 356 352 348 345 343
215 210 208 210 219 226 225 225 226 226 231 236 235 237 240 245 252 253 245 232 219 216 218 220 214 196 177 163 145 127 116 110 105 109 108 105 105 103 100 92 90 97 83 50 32 19 14 12 7 5 1 357 354 353 354 356 357 356 352 349 346 342 340
224 220 213 215 224 224 216 216 220 219 224 228 231 234 234 235 241 246 247 242 237 235 234 236 238 240 245 246 251 285 301 314 332 348 357 3 10 1 359 2 359 355 350 341 340 340 344 348 349 347 345 344 344 344 346 348 349 349 347 345 343 340 337
231 229 220 219 228 230 220 217 219 218 219 221 223 227 230 232 235 241 248 248 243 241 240 241 242 247 265 280 289 295 298 303 313 325 325 325 333 335 338 342 343 344 343 339 337 336 334 339 346 345 340 338 337 336 336 337 338 339 339 338 337 335 333
238 231 219 219 229 233 227 223 223 224 224 225 225 225 228 231 232 235 243 251 253 249 245 243 241 238 240 253 270 281 288 298 306 310 302 293 296 305 317 325 327 334 339 338 337 334 329 333 341 342 340 336 333 329 326 325 327 329 330 330 330 329 328
234 220 213 221 230 234 235 231 229 230 231 231 232 232 233 236 238 237 239 249 255 251 248 246 242 239 234 230 236 252 264 273 281 288 287 281 279 279 284 297 306 316 324 328 329 325 321 321 322 325 332 334 330 324 319 317 320 323 323 323 324 324 323
225 216 217 225 233 239 242 239 237 237 238 239 239 240 242 243 246 246 242 244 250 249 248 250 250 249 246 241 239 251 264 269 268 271 274 273 271 267 260 261 274 286 292 295 297 300 303 304 303 304 313 323 325 322 316 312 314 317 317 317 317 316 318
228 224 226 232 239 245 247 245 244 243 244 244 242 244 249 247 247 251 244 238 244 246 247 255 261 260 255 254 257 260 265 269 270 269 270 271 269 266 261 256 257 265 272 278 280 280 282 284 287 291 297 306 313 312 306 303 306 310 310 310 310 312 315
238 236 236 241 248 252 253 252 253 252 251 248 242 244 251 250 246 247 242 239 244 247 251 261 270 271 267 264 267 268 267 270 271 268 270 274 271 265 262 260 261 263 264 268 270 271 274 276 277 279 281 287 294 297 296 295 299 303 304 305 308 311 313
243 242 243 248 254 257 256 257 260 261 257 249 241 241 247 251 247 244 241 242 246 251 257 264 271 274 271 266 266 270 271 273 273 272 275 276 270 262 260 261 263 261 260 263 263 263 267 272 275 277 276 276 281 286 291 291 292 297 302 306 311 312 312
244 244 245 247 251 256 256 255 257 258 254 248 241 238 240 243 244 243 243 247 253 256 258 262 269 274 271 268 269 274 276 274 273 275 278 276 270 264 262 261 262 259 258 262 264 264 266 268 270 274 274 272 275 282 287 288 290 298 307 312 315 315 314
249 249 249 249 251 254 256 253 252 253 251 247 241 238 238 239 241 244 249 255 260 259 258 263 272 274 272 273 274 275 275 274 274 277 279 279 276 273 269 267 266 263 259 259 263 268 268 263 261 263 265 269 275 282 286 289 293 303 311 315 316 316 315
251 254 254 253 251 251 254 256 257 256 255 250 244 241 240 239 240 244 252 259 262 260 257 260 266 269 269 271 273 274 274 275 278 280 281 282 281 279 277 276 273 270 263 256 257 262 262 257 254 256 262 269 275 280 286 292 298 306 312 314 314 314 315
255 252 247 241 241 244 249 256 258 255 252 248 244 243 242 241 242 246 253 256 255 252 247 242 241 248 258 267 272 276 275 275 278 281 282 283 282 280 278 275 273 270 263 256 256 259 256 251 252 257 264 269 275 282 290 295 301 308 313 313 312 312 313
258 242 226 220 226 233 238 242 245 244 241 236 234 237 240 242 242 241 239 237 235 229 220 217 225 245 267 278 280 278 278 278 280 282 284 285 286 284 281 278 274 270 265 261 260 254 246 247 252 258 264 270 278 287 293 297 303 309 311 310 309 309 310
264 246 221 213 217 223 226 224 218 216 215 211 213 219 223 223 221 215 213 215 219 216 213 224 242 261 275 284 284 283 286 288 286 287 288 289 290 287 283 279 273 270 273 277 264 246 242 247 254 259 265 275 284 291 296 301 307 309 307 305 304 305 305
255 247 235 232 233 232 230 224 214 207 204 200 199 200 202 202 200 200 205 212 217 219 226 240 253 265 275 285 290 291 294 297 294 289 286 287 290 288 284 284 282 282 291 283 258 249 250 254 259 265 273 282 288 294 300 304 304 304 302 300 301 302 303
243 245 246 245 240 238 237 235 229 218 208 202 196 195 199 202 204 209 212 216 221 225 233 245 255 266 278 288 296 299 302 304 300 288 284 287 290 294 301 310 319 322 297 261 253 257 260 263 267 274 280 285 290 295 300 300 298 297 297 298 299 300 301
235 239 243 241 239 239 234 228 225 221 218 215 210 204 204 204 204 208 211 216 227 236 244 257 269 283 296 302 306 310 312 311 306 297 292 293 296 301 310 316 314 299 274 261 258 262 267 271 275 279 282 285 290 294 294 292 291 292 293 295 296 297 298
242 239 236 234 230 221 206 194 191 193 197 198 197 191 185 182 179 177 185 213 248 266 272 278 284 293 302 307 310 312 313 312 309 306 303 302 300 301 300 298 292 283 275 271 269 271 275 278 280 282 284 287 289 290 289 288 289 291 292 294 295 298 301
243 239 233 230 226 221 215 208 202 198 191 182 180 181 180 183 186 188 205 245 277 289 289 288 287 288 293 299 304 306 307 307 307 309 311 307 300 293 288 285 282 278 277 277 277 280 282 283 284 286 288 288 288 288 290 291 292 294 296 298 301 304 306
239 238 234 230 226 224 224 223 219 219 213 204 206 213 218 227 240 253 267 279 288 295 299 295 290 286 285 290 294 295 296 298 301 304 301 293 286 282 279 277 275 275 276 277 279 282 286 290 292 292 291 290 289 290 292 293 295 297 300 303 305 307 308
237 239 238 235 230 227 231 237 239 241 239 232 230 233 239 248 258 266 274 280 287 296 304 305 297 285 275 274 278 283 290 294 292 289 283 276 274 271 269 268 268 271 276 279 280 283 289 294 295 292 291 291 292 293 295 297 299 302 304 305 307 307 309
230 231 235 238 236 231 229 231 235 236 236 235 235 237 242 247 253 259 266 274 283 294 303 306 301 289 277 268 262 266 273 276 277 280 281 279 275 270 267 266 265 270 278 281 279 281 286 290 291 290 291 292 294 297 300 302 304 305 307 307 308 309 310